Regional Weather Roundup
Issued by NWS

Home | Current Version | Previous Version | Text Only | Print | Product List | Glossary On
Versions: 1 2 3 4 5 6 7 8 9 10 11 12 13 14 15 16 17 18 19 20 21 22 23 24 25 26 27 28 29 30 31 32 33 34 35 36 37 38 39 40 41 42 43 44 45 46 47 48 49 50
000
ASUS43 KIND 300709
RWRIN

WEATHER ROUNDUP FOR INDIANA
NATIONAL WEATHER SERVICE INDIANAPOLIS IN
300 AM EDT MON MAR 30 2015

NOTE: "FAIR" INDICATES FEW OR NO CLOUDS BELOW 12,000 FEET WITH NO
SIGNIFICANT WEATHER AND/OR OBSTRUCTIONS TO VISIBILITY.

* - STATION DOES NOT REPORT WEATHER SUCH AS PRECIPITATION OR FOG.

+ - STATION NOT QUALITY CONTROLLED BY THE NATIONAL WEATHER SERVICE.
    USE DATA WITH CAUTION...ESPECIALLY DEWPOINT AND RELATIVE
    HUMIDITY OBSERVATIONS.

INZ001>003-010>013-019-020-300800-
NORTHWEST INDIANA

CITY           SKY/WX    TMP DP  RH WIND       PRES   REMARKS
GARY /AIRPORT/ PTCLDY    37  30  75 W5        29.97R
KNOX *+          N/A     37  25  60 W6        29.95S
LA PORTE +     MOCLDY    42  33  71 W6        29.95S
MICHIGAN CITY+ PTCLDY    39  30  70 W6        29.96R
MONTICELLO +   MOCLDY    37  33  84 SW5       29.97S
RENSSELAER +   CLEAR     37  34  87 W7        29.98R
VALPARAISO     PTCLDY    35  30  82 SW3       29.97R

$$

LMZ046-743>745-300800-
SOUTHERN LAKE MICHIGAN

STATION/POSITION TIME  TEMP WIND        PRES
                       AIR  DIR/SP/G
                 (UTC) (F)  (DEG/KT/KT) (MB)
BURNS HARBOR     0700   39  250/  8/  9 1014.9S
MICHIGAN CITY    0700   37  220/ 11/ 11   N/A

$$

INZ004-005-014>016-021>024-300800-
NORTH CENTRAL INDIANA

CITY           SKY/WX    TMP DP  RH WIND       PRES   REMARKS
GOSHEN         CLEAR     40  30  67 W13       29.91R
LOGANSPORT +   CLOUDY    36  34  93 W6        29.98R
PERU/GRISSOM   CLOUDY    40  34  80 W7        29.96R
ROCHESTER +    MOCLDY    45  36  70 NW12      29.96R
SOUTH BEND     PTCLDY    38  29  70 W8        29.94R
WARSAW +       CLEAR     39  32  75 W13       29.93R

$$

INZ006>009-017-018-025>027-300800-
NORTHEAST INDIANA

CITY           SKY/WX    TMP DP  RH WIND       PRES   REMARKS
ANGOLA *+      CLOUDY    41  30  65 NW10      29.88R
AUBURN +       CLOUDY    41  32  70 W14       29.90R
FORT WAYNE     PTCLDY    41  32  70 W14       29.92R
HUNTINGTON +   PTCLDY    41  28  60 NW10G16   29.94R

$$

INZ028-029-035-036-043>045-051>053-300800-
WEST CENTRAL INDIANA

CITY           SKY/WX    TMP DP  RH WIND       PRES   REMARKS
CRAWFORDSVL +  CLEAR     37  30  75 SW7       30.01S
GREENCASTLE +  PTCLDY    43  36  75 W3        30.03S
LAFAYETTE      PTCLDY    38  32  79 W6        29.99F
TERRE HAUTE    CLEAR     43  38  82 NW5       30.04S

$$

INZ030>032-037>040-046>048-054>057-064-065-300800-
CENTRAL INDIANA

CITY           SKY/WX    TMP DP  RH WIND       PRES   REMARKS
CP ATTERBURY + PTCLDY    46  39  76 NW7       30.02R
FRANKFORT +    CLEAR     35  31  87 SW8       30.01S WCI  28
GREENWOOD *+   PTCLDY    45  34  65 W3        30.01R
INDIANAPOLIS   MOCLDY    43  35  73 W7        30.00S
-EAGLE CREEK   PTCLDY    43  35  73 W7        30.00S
KOKOMO *+        N/A     39  34  81 W10       29.97S
MARION +       PTCLDY    38  33  82 W9        29.96F
MT COMFORT *+  CLEAR     41  27  56 NW9       30.00S
SHELBYVILLE    CLEAR     45  35  68 NW12      30.00R
ZIONSVILLE +   CLEAR     39  32  76 W5        29.99S

$$

INZ033-034-041-042-049-050-058-059-300800-
EAST CENTRAL INDIANA

CITY           SKY/WX    TMP DP  RH WIND       PRES   REMARKS
MUNCIE         CLEAR     41  35  79 W10       29.97R

$$

INZ060-061-067>069-081>083-085>088-300800-
SOUTHWEST INDIANA

CITY           SKY/WX    TMP DP  RH WIND       PRES   REMARKS
EVANSVILLE     CLEAR     54  43  66 VRB7      30.06F
HUNTINGBURG *+ CLEAR     50  41  71 W12       30.04F
WASHINGTON +   CLEAR     46  40  78 W8        30.03F

$$

INZ062-063-066-070>080-084-089>092-300800-
SOUTH CENTRAL AND SOUTHEAST INDIANA

CITY           SKY/WX    TMP DP  RH WIND       PRES   REMARKS
BEDFORD +      CLEAR     48  41  76 W9        30.02S
BLOOMINGTON    CLEAR     46  40  79 NW7       30.02S
NORTH VERNON + MOCLDY    48  43  81 W14       30.01R
SEYMOUR +      MOCLDY    50  41  71 W10G18    30.01R

$$



USA.gov is the U.S. government's official web portal to all federal, state and local government web resources and services.